[[{"header":{"parameterUnit":"m.s-1","parameterCategory":1,"la1":30.2991,"la2":30.254,"lo1":-89.0895,"lo2":-89.0444,"dy":0.0017,"dx":0.0017,"nx":28,"ny":28,"refTime":"2025-07-18T03:00:00:Z","depth":0,"parameterNumber":2,"parameterNumberName":"U-component_of_WINDS"},"data":[0,0,0,0,0,0,0,0,0,0,0,0,0,0,0,0,0,0,0,0,0,0,0,0,0,0,0,0,0,0,0,0,0,0,0,0,0,0,0,0,0,0,0,0,0,0,0,0,0,0,0,0,0,0,0,0,0,0,2.0117,2.0117,0,2.01,2.01,2.0099,2.0068,2.0068,2.0067,2.0067,2.0048,2.0048,2.0049,0,0,0,0,0,0,0,0,0,0,0,0,0,2.0121,2.0121,2.0117,2.0117,2.0117,2.01,2.01,2.0099,2.0068,2.0068,2.0067,2.0066,2.0048,2.0048,2.0049,0,0,0,0,0,0,0,0,0,0,0,0,0,2.0113,2.0121,2.0117,2.0099,2.0097,2.01,2.0099,2.0099,2.0069,2.0068,2.0067,2.0066,2.0048,2.0048,2.0049,2.0067,0,0,2.0049,2.0049,0,0,0,0,0,0,0,0,2.0114,2.0113,2.0102,2.01,2.0098,2.0085,2.0094,2.0088,2.0069,2.0079,2.0067,2.0066,2.0061,2.006,2.0059,2.0066,2.0065,2.0049,2.0049,2.0049,2.0049,0,0,0,0,0,0,0,2.0114,2.0114,2.011,2.0102,2.01,2.0091,2.0089,2.0093,2.0076,2.0078,2.0076,2.0075,2.006,2.0059,2.0058,2.0065,2.0049,2.0049,2.0049,2.0049,2.0084,2.0084,0,0,0,0,0,0,2.0118,2.0114,2.0111,2.011,2.0104,2.0092,2.009,2.009,2.0075,2.0072,2.0075,2.0073,2.0059,2.0058,2.0058,2.0076,2.0049,2.0049,2.0049,2.0083,2.0084,2.0085,0,0,0,0,0,0,2.0118,2.0118,2.0111,2.0111,2.011,2.0093,2.0094,2.009,2.0089,2.0073,2.007,2.0077,2.0059,2.0057,2.0064,2.0075,2.0049,2.0049,2.0082,2.0083,2.0084,2.0115,0,0,0,0,0,0,2.0118,2.0118,2.0125,2.0112,2.011,2.0119,2.0095,2.0091,2.009,2.0087,2.0074,2.0071,2.0058,2.0064,2.0064,2.0075,2.0049,2.0081,2.0082,2.0084,2.0113,2.0117,2.012,0,0,0,0,0,2.0119,2.0135,2.0126,2.0126,2.0119,2.012,2.0119,2.0103,2.0091,2.0097,2.0087,2.0072,2.0074,2.0065,2.0065,2.0076,2.008,2.0082,2.0084,2.0111,2.0116,2.012,0,0,0,0,0,0,2.015,2.0133,2.0123,2.0135,2.0129,2.0114,2.0122,2.0109,2.0106,2.0104,2.0084,2.0082,2.009,2.0084,2.0074,2.0091,2.0075,2.0077,2.0095,2.01,2.0104,2.0105,2.0049,0,0,0,0,0,2.0159,2.0161,2.0146,2.0159,2.0156,2.014,2.014,2.0128,2.0121,2.0118,2.0108,2.0101,2.01,2.01,2.0098,2.0112,2.0108,2.0119,2.0123,2.0126,2.0128,2.0132,2.0136,2.0091,2.0091,2.0091,0,0,2.0177,2.0167,2.017,2.0165,2.0159,2.016,2.0138,2.0142,2.0142,2.0118,2.0124,2.0116,2.0107,2.0117,2.0121,2.0112,2.0139,2.0129,2.0131,2.0131,2.0134,2.0139,2.0143,2.0092,2.0092,2.0092,0,0,2.0209,2.0203,2.0212,2.0206,2.0197,2.0186,2.0188,2.0175,2.0169,2.0174,2.0155,2.0156,2.0155,2.0149,2.0146,2.0175,2.016,2.0175,2.0195,2.0199,2.0203,2.0206,2.0214,2.0218,2.0177,2.0177,2.0177,0,2.0232,2.0235,2.0218,2.0222,2.022,2.0198,2.0206,2.0201,2.0192,2.019,2.018,2.0178,2.017,2.0177,2.0184,2.0183,2.0183,2.0175,2.0204,2.0207,2.0209,2.0217,2.022,2.0178,2.0178,2.0178,2.0178,0,2.0262,2.0265,2.0273,2.0264,2.0262,2.0268,2.0252,2.0252,2.024,2.023,2.0234,2.0225,2.022,2.0221,2.021,2.0225,2.022,2.0207,2.019,2.0215,2.0222,2.0225,2.0181,2.018,2.018,2.0179,0,0,2.0315,2.0296,2.0299,2.0293,2.0281,2.0282,2.0287,2.0282,2.0281,2.0276,2.0278,2.0277,2.0265,2.0261,2.0249,2.0253,2.0274,2.024,2.0239,2.0245,2.0288,2.0297,2.03,2.0265,2.0265,2.0266,2.0288,0,2.0343,2.035,2.0334,2.0345,2.0345,2.0324,2.0328,2.032,2.031,2.0309,2.0298,2.0297,2.0282,2.0279,2.0283,2.0271,2.0282,2.0269,2.0265,2.0265,2.0267,2.0304,2.0313,2.0335,2.0291,2.0292,2.0292,0,2.0378,2.0373,2.0383,2.0368,2.0368,2.0371,2.0364,2.0364,2.0354,2.0347,2.0342,2.0328,2.033,2.0314,2.0316,2.0307,2.0305,2.0299,2.0299,2.0297,2.0279,2.0301,2.0342,2.0345,2.0296,2.0296,2.0296,0,2.0412,2.0408,2.0413,2.041,2.0393,2.0396,2.0389,2.0379,2.0376,2.037,2.0368,2.0362,2.0359,2.0355,2.0339,2.0329,2.0342,2.0325,2.0334,2.0335,2.0337,2.0337,2.0376,2.0338,2.0338,2.0338,2.0338,0,2.0445,2.0451,2.0428,2.0431,2.0437,2.0419,2.0425,2.0417,2.0407,2.0407,2.0389,2.0389,2.0369,2.0367,2.0354,2.0356,2.0356,2.0349,2.0345,2.0349,2.035,2.0346,2.0344,2.0339,2.0339,2.0339,2.0339,0,2.0484,2.0469,2.0472,2.0456,2.0452,2.0457,2.0443,2.0445,2.0433,2.0434,2.0433,2.0415,2.0411,2.0395,2.0388,2.0379,2.0385,2.0379,2.0388,2.0385,2.0395,2.0394,2.0432,2.0435,2.0397,2.0398,2.0398,0,2.0505,2.0509,2.0493,2.0492,2.0486,2.0484,2.0481,2.0463,2.046,2.0449,2.0451,2.0446,2.044,2.0435,2.0421,2.0415,2.0408,2.0422,2.0407,2.041,2.0406,2.0405,2.0404,2.0424,2.0425,2.0425,2.0426,0,2.0543,2.0535,2.0531,2.0525,2.0521,2.0515,2.0508,2.0508,2.0488,2.0486,2.0481,2.0477,2.0469,2.0463,2.0455,2.0447,2.0432,2.0431,2.0432,2.0436,2.044,2.0436,2.0395,2.0429,2.0429,2.0429,2.0429,2.0428,2.0572,2.0574,2.0563,2.0559,2.0551,2.0545,2.0545,2.0533,2.0529,2.0521,2.0511,2.0507,2.0496,2.0483,2.0476,2.0472,2.0464,2.0467,2.0467,2.0468,2.0469,2.0442,2.0471,2.0471,2.047,2.047,2.047,0,2.0608,2.0599,2.0596,2.0586,2.0582,2.0569,2.056,2.0558,2.0555,2.0546,2.0541,2.0535,2.0529,2.0514,2.0507,2.0506,2.0499,2.0505,2.0504,2.0502,2.0478,2.0476,2.051,2.051,2.051,2.051,2.051,2.051,2.0625,2.0628,2.0618,2.0616,2.0607,2.0603,2.0599,2.0592,2.0584,2.0579,2.0574,2.0564,2.0552,2.0543,2.0537,2.0533,2.053,2.0537,2.0531,2.0508,2.0504,2.05,2.0499,2.0537,2.0537,2.0555,2.0555,2.0555]},{"header":{"parameterUnit":"m.s-1","parameterCategory":1,"la1":30.2991,"la2":30.254,"lo1":-89.0895,"lo2":-89.0444,"dy":0.0017,"dx":0.0017,"nx":28,"ny":28,"refTime":"2025-07-18T03:00:00:Z","depth":0,"parameterNumber":3,"parameterNumberName":"V-component_of_WINDS"},"data":[0,0,0,0,0,0,0,0,0,0,0,0,0,0,0,0,0,0,0,0,0,0,0,0,0,0,0,0,0,0,0,0,0,0,0,0,0,0,0,0,0,0,0,0,0,0,0,0,0,0,0,0,0,0,0,0,0,0,4.9914,4.9915,0,4.9983,4.9984,4.9985,4.9972,4.9971,4.9969,4.9968,5.0036,5.0038,5.0041,0,0,0,0,0,0,0,0,0,0,0,0,0,4.9767,4.977,4.9914,4.9915,4.9916,4.9983,4.9984,4.9985,4.9972,4.997,4.9969,4.9968,5.0035,5.0038,5.0042,0,0,0,0,0,0,0,0,0,0,0,0,0,4.9833,4.9771,4.9914,4.9917,4.9918,4.9983,4.9984,4.9985,4.9972,4.997,4.9969,4.9967,5.0033,5.0038,5.0042,5.0106,0,0,5.0056,5.0057,0,0,0,0,0,0,0,0,4.9829,4.9838,4.9916,4.9917,4.9918,4.9967,4.9957,5.0026,4.9973,4.9952,4.9968,4.9966,5.0014,5.002,5.0037,5.0109,5.0112,5.0056,5.0059,5.0061,5.0062,0,0,0,0,0,0,0,4.9825,4.9835,4.9941,4.9917,4.9919,4.9915,4.9922,4.997,4.9992,4.9953,4.9953,4.9961,5.0014,5.0033,5.0038,5.0113,5.0056,5.006,5.0062,5.0064,5.0243,5.0245,0,0,0,0,0,0,4.982,4.9832,4.9939,4.9943,4.9869,4.9919,4.9927,4.9953,4.9992,4.9996,4.9963,4.996,5.0026,5.0033,5.0041,5.0119,5.006,5.0065,5.0067,5.0241,5.0243,5.0245,0,0,0,0,0,0,4.9816,4.9829,4.9936,4.9887,4.9901,4.9923,4.9953,4.9956,4.9974,4.9999,5.0002,4.9978,5.0025,5.0034,5.009,5.0121,5.0067,5.0071,5.0238,5.0241,5.0244,5.0275,0,0,0,0,0,0,4.9812,4.9828,4.9853,4.9888,4.9903,4.9986,4.9955,4.9958,4.9982,4.998,5.0014,5.0017,5.0024,5.0084,5.0095,5.0126,5.0074,5.0235,5.024,5.0243,5.0272,5.0279,5.0286,0,0,0,0,0,4.9807,4.9858,4.9855,4.9868,4.9935,4.9987,4.9996,5.0004,4.9984,5.001,5.0026,5.0016,5.0116,5.009,5.0102,5.0135,5.0234,5.0238,5.0243,5.0269,5.0278,5.0285,0,0,0,0,0,0,4.9825,4.9863,4.9859,4.9923,4.9953,4.9985,5.0017,5.0013,5.0047,5.0043,5.005,5.0058,5.0115,5.013,5.0101,5.0199,5.0172,5.0179,5.0187,5.0196,5.0203,5.0198,5.0078,0,0,0,0,0,4.9837,4.9877,4.9907,4.9961,4.9976,4.9994,5.0017,5.0021,5.005,5.0062,5.0082,5.0111,5.0149,5.0173,5.0209,5.0274,5.0281,5.0303,5.031,5.0315,5.0321,5.0357,5.0367,5.0261,5.0261,5.0261,0,0,4.9861,4.9886,4.9911,4.9965,4.9988,5.0029,5.0004,5.0048,5.0078,5.0068,5.0123,5.0139,5.0171,5.0232,5.026,5.0247,5.0353,5.0321,5.0326,5.0329,5.0363,5.0373,5.0382,5.0264,5.0264,5.0263,0,0,4.9925,4.9949,4.9997,5.0021,5.0056,5.0068,5.008,5.0114,5.0124,5.018,5.0173,5.0209,5.0273,5.0297,5.0317,5.0393,5.0385,5.0404,5.044,5.0475,5.0483,5.0491,5.0518,5.0528,5.041,5.041,5.041,0,4.995,5.0012,5.0021,5.0066,5.009,5.0085,5.0133,5.0156,5.0201,5.0217,5.0202,5.0284,5.0305,5.0372,5.0391,5.0407,5.042,5.04,5.0482,5.0489,5.0496,5.0522,5.0532,5.0412,5.0412,5.0412,5.0412,0,5.0041,5.0084,5.0118,5.0164,5.0192,5.0238,5.0253,5.028,5.0282,5.0295,5.0352,5.0378,5.0419,5.0435,5.0436,5.0503,5.0493,5.048,5.0453,5.0508,5.0533,5.0543,5.0415,5.0414,5.0414,5.0413,0,0,5.0118,5.0169,5.0181,5.0203,5.0242,5.0275,5.0321,5.0363,5.0387,5.0418,5.0457,5.0512,5.0501,5.0524,5.0528,5.0559,5.0617,5.0542,5.0543,5.0555,5.0692,5.0702,5.0713,5.0613,5.0615,5.0616,5.0689,0,5.0186,5.0269,5.0279,5.0352,5.0392,5.0388,5.0429,5.0457,5.0471,5.0506,5.0521,5.0561,5.0543,5.0557,5.0587,5.0604,5.0645,5.0599,5.0648,5.065,5.064,5.0726,5.0736,5.0804,5.0699,5.0701,5.0702,0,5.0277,5.0313,5.0391,5.0426,5.0443,5.0479,5.0519,5.0553,5.0585,5.0593,5.062,5.062,5.0667,5.0639,5.0704,5.0672,5.0693,5.0704,5.0707,5.0712,5.0679,5.0733,5.0825,5.0836,5.0717,5.0716,5.0715,0,5.0325,5.0393,5.0449,5.0467,5.0509,5.0535,5.0553,5.0584,5.0609,5.0643,5.066,5.0699,5.072,5.075,5.0761,5.0739,5.0825,5.0797,5.0833,5.0833,5.0851,5.085,5.0948,5.0865,5.0865,5.0864,5.0864,0,5.0401,5.0448,5.0471,5.0505,5.0559,5.0569,5.0622,5.0639,5.0666,5.0703,5.0702,5.0736,5.0749,5.0785,5.0794,5.0846,5.0856,5.0863,5.0865,5.0864,5.0863,5.0877,5.0873,5.0867,5.0867,5.0866,5.0866,0,5.0464,5.0481,5.0541,5.0577,5.0587,5.0625,5.0655,5.0688,5.0702,5.0749,5.076,5.0782,5.0825,5.0839,5.0891,5.0897,5.0958,5.0956,5.0948,5.0948,5.0983,5.098,5.1094,5.111,5.1016,5.1017,5.1018,0,5.0511,5.0548,5.0588,5.0613,5.0633,5.0674,5.07,5.0712,5.0739,5.0779,5.0807,5.085,5.0885,5.0954,5.0974,5.1014,5.1012,5.105,5.1018,5.1015,5.1013,5.1011,5.1014,5.1055,5.1056,5.1057,5.1058,0,5.0592,5.0599,5.0637,5.0679,5.0711,5.0744,5.0776,5.0796,5.0813,5.0844,5.0888,5.0916,5.0969,5.1012,5.1053,5.1071,5.1067,5.1068,5.1078,5.1077,5.1071,5.1075,5.0964,5.1065,5.1064,5.1064,5.1063,5.1063,5.0649,5.0682,5.0716,5.0759,5.0784,5.0814,5.0847,5.0866,5.0904,5.095,5.0954,5.1003,5.1034,5.1089,5.1109,5.1147,5.1136,5.1151,5.1155,5.1158,5.1161,5.1065,5.1154,5.1154,5.1154,5.1154,5.1154,0,5.073,5.0752,5.0792,5.0837,5.0871,5.0866,5.0902,5.093,5.0973,5.1004,5.1039,5.109,5.1132,5.1156,5.1198,5.1223,5.1223,5.1234,5.1232,5.1236,5.1168,5.1155,5.1233,5.1233,5.1233,5.1233,5.1233,5.1233,5.0777,5.0833,5.0844,5.0912,5.0934,5.0982,5.1003,5.1031,5.1055,5.1114,5.1149,5.1165,5.1193,5.1236,5.1274,5.128,5.1296,5.1308,5.1313,5.1249,5.1241,5.1233,5.1221,5.1311,5.1311,5.1378,5.1378,5.1379]}]]